Home   Weather   Maceió   Past weeks
Flag for Brazil

Past Weather in Maceió, Alagoas, Brazil — Yesterday and Last 2 Weeks

Now
72 °F

Scattered clouds.


Feels Like: 65 °F
Forecast: 83 / 74 °F
Wind: 3 mph from East

Location: Maceio Aeroporto

Current Time: Oct 15, 2019 at 6:37:16 am

Latest Report: Oct 15, 2019 at 6:00 am


Visibility: N/A

Pressure: 29.98 "Hg

Humidity: 100%

Dew Point: 72 °F

Location of MaceióLocation

Past Weather in Maceió — Graph

°F

Maceió Temperature Yesterday

Maximum temperature yesterday: 84 °F (at 1:00 pm)
Minimum temperature yesterday: 70 °F (at 11:00 pm)
Average temperature yesterday: 76 °F

High & Low Weather Summary for the Past Weeks

 TemperatureHumidityPressure
High86 °F (Sep 30, 11:00 am)100% (Oct 1, 6:00 am)30.07 "Hg (Oct 1, 6:00 am)
Low68 °F (Oct 3, 4:00 am)48% (Sep 30, 10:00 am)29.89 "Hg (Sep 30, 3:00 pm)
Average77 °F79%29.98 "Hg
* Reported Sep 30 5:00 am — Oct 15 5:00 am, Maceió. Weather by CustomWeather, © 2019

Note: Actual official high and low records may vary slightly from our data, if they occured in-between our weather recording intervals... More about our weather records

Advertising

Maceió Weather History for the Previous 24 Hours

Scroll right to see more
 ConditionsComfort  
Time TempWeatherWind HumidityBarometerVisibility
5:00 am
Tue, Oct 15
72 °FScattered clouds.3 mph94%29.98 "HgN/A
4:00 am72 °FPassing clouds.3 mph94%29.98 "HgN/A
3:00 am72 °FPassing clouds.6 mph94%29.95 "HgN/A
2:00 am72 °FPassing clouds.5 mph94%29.98 "HgN/A
1:00 am72 °FPassing clouds.3 mph94%29.98 "HgN/A
12:00 am70 °FPassing clouds.6 mph100%30.01 "HgN/A
11:00 pm
Mon, Oct 14
70 °FClear.3 mph94%30.01 "Hg10 mi
10:00 pm72 °FPassing clouds.6 mph94%30.04 "HgN/A
9:00 pm73 °FPassing clouds.9 mph89%30.01 "HgN/A
8:00 pm75 °FPassing clouds.8 mph83%29.98 "HgN/A
7:00 pm73 °FClear.7 mph89%29.98 "Hg10 mi
6:00 pm75 °FPassing clouds.9 mph83%29.95 "HgN/A
5:00 pm79 °FPassing clouds.13 mph70%29.95 "HgN/A
4:00 pm81 °FScattered clouds.15 mph70%29.92 "HgN/A
3:00 pm82 °FScattered clouds.15 mph62%29.92 "HgN/A
2:00 pm84 °FScattered clouds.14 mph55%29.92 "HgN/A
1:00 pm84 °FScattered clouds.15 mph58%29.95 "HgN/A
12:00 pm82 °FPartly sunny.14 mph66%29.98 "HgN/A
11:00 am79 °FPartly sunny.12 mph79%30.01 "HgN/A
10:00 am77 °FPartly sunny.6 mph79%30.01 "HgN/A
9:00 am79 °FBroken clouds.16 mph74%30.01 "HgN/A
8:00 am75 °FLight rain. Broken clouds.10 mph89%30.01 "Hg5 mi
7:00 am75 °FBroken clouds.5 mph94%29.98 "HgN/A
6:00 am73 °FLight rain. Broken clouds.No wind94%29.98 "Hg4 mi
Weather by CustomWeather, © 2019

See weather overview